GW7819 Weather Reports


time (UTC)temp
C
wind
direction
speed
KPH
gust
KPH
rain 1hr
cm
rain 24hr
cm
rain mn
cm
humidity
%
barometer
mb
20260902131238 27 69 3.2 4.8 0.00 0.00 0.00 74 1022.2
20260902130737 28 96 1.6 4.8 0.00 0.00 0.00 73 1022.2
20260902130237 28 89 0.0 3.2 0.00 0.00 0.00 73 1022.2
20260902125737 27 110 0.0 3.2 0.00 0.00 0.00 75 1021.8
20260902125237 27 249 0.0 3.2 0.00 0.00 0.00 76 1021.8
20260902124736 25 38 3.2 3.2 0.00 0.00 0.00 81 1022.2
20260902124237 25 315 0.0 0.0 0.00 0.00 0.00 82 1022.2
20260902123737 25 164 0.0 1.6 0.00 0.00 0.00 81 1022.5
20260902123237 25 212 0.0 1.6 0.00 0.00 0.00 80 1022.2
20260902122737 25 135 0.0 0.0 0.00 0.00 0.00 81 1022.2
20260902122237 25 180 0.0 0.0 0.00 0.00 0.00 81 1022.2
20260902121737 25 135 0.0 0.0 0.00 0.00 0.00 82 1021.8
20260902121237 24 309 0.0 0.0 0.00 0.00 0.00 84 1021.8
20260902120736 23 309 0.0 0.0 0.00 0.00 0.00 87 1021.8
20260902120237 23 147 0.0 1.6 0.00 0.00 0.00 88 1021.8
20260902115737 22 217 0.0 1.6 0.00 0.00 0.00 89 1021.8
20260902115237 22 60 0.0 1.6 0.00 0.00 0.00 90 1021.8
20260902114737 22 50 0.0 1.6 0.00 0.00 0.00 92 1021.5
20260902114237 22 242 0.0 1.6 0.00 0.00 0.00 92 1021.5
20260902113737 22 207 0.0 1.6 0.00 0.00 0.00 91 1021.1
20260902113236 22 315 0.0 1.6 0.00 0.00 0.00 91 1021.1
20260902112737 22 229 0.0 1.6 0.00 0.00 0.00 90 1021.5
20260902112237 22 104 0.0 1.6 0.00 0.00 0.00 91 1021.1
20260902111737 22 55 0.0 3.2 0.00 0.00 0.00 91 1021.1
20260902111236 22 174 0.0 4.8 0.00 0.00 0.00 91 1021.5
20260902110737 22 160 3.2 4.8 0.00 0.00 0.00 90 1021.1
20260902110237 22 11 1.6 3.2 0.00 0.00 0.00 91 1021.1
20260902105737 21 22 3.2 3.2 0.00 0.00 0.00 92 1020.8
20260902105237 22 255 0.0 3.2 0.00 0.00 0.00 91 1020.8
20260902104738 22 327 0.0 1.6 0.00 0.00 0.00 92 1020.8
20260902104237 22 36 0.0 3.2 0.00 0.00 0.00 92 1020.8
20260902103737 22 271 0.0 3.2 0.00 0.00 0.00 91 1020.8
20260902103237 22 224 0.0 1.6 0.00 0.00 0.00 91 1020.8
20260902102736 22 44 0.0 3.2 0.00 0.00 0.00 90 1020.8
20260902102236 22 209 0.0 3.2 0.00 0.00 0.00 92 1020.8
20260902101738 21 44 0.0 1.6 0.00 0.00 0.00 92 1020.8
20260902101237 21 60 0.0 1.6 0.00 0.00 0.00 92 1020.8
20260902100737 21 190 0.0 1.6 0.00 0.00 0.00 92 1020.8
20260902100237 22 242 0.0 0.0 0.00 0.00 0.00 92 1020.4
20260902095737 22 297 0.0 1.6 0.00 0.00 0.00 91 1020.4
20260902095236 22 235 0.0 3.2 0.00 0.00 0.00 91 1020.4
20260902094737 22 230 0.0 4.8 0.00 0.00 0.00 91 1020.4
20260902094237 22 161 3.2 4.8 0.00 0.00 0.00 90 1020.4
20260902093737 22 181 1.6 4.8 0.00 0.00 0.00 89 1020.4
20260902093236 22 21 1.6 3.2 0.00 0.00 0.00 90 1020.4
20260902092737 22 1 3.2 3.2 0.00 0.00 0.00 91 1020.1
20260902092236 22 44 0.0 1.6 0.00 0.00 0.00 90 1020.4
20260902091736 22 135 0.0 1.6 0.00 0.00 0.00 89 1020.4
20260902091236 22 205 0.0 1.6 0.00 0.00 0.00 89 1020.1
20260902090736 22 229 0.0 1.6 0.00 0.00 0.00 89 1020.1
20260902090236 22 0.0 1.6 0.00 0.00 0.00 89 1020.1
20260902085737 22 212 0.0 3.2 0.00 0.00 0.00 89 1020.1
20260902085237 22 25 0.0 3.2 0.00 0.00 0.00 89 1020.1
20260902084737 22 33 1.6 3.2 0.00 0.00 0.00 89 1020.1
20260902084236 22 309 0.0 3.2 0.00 0.00 0.00 88 1020.1
20260902083736 22 333 0.0 4.8 0.00 0.00 0.00 89 1020.1
20260902083237 22 8 3.2 4.8 0.00 0.00 0.00 89 1020.1
20260902082737 22 357 3.2 3.2 0.00 0.00 0.00 90 1020.1
20260902082237 22 260 0.0 4.8 0.00 0.00 0.00 89 1020.1
20260902081737 22 183 0.0 4.8 0.00 0.00 0.00 90 1020.1
20260902081236 22 186 1.6 4.8 0.00 0.00 0.00 90 1020.1
20260902080737 22 11 3.2 4.8 0.00 0.00 0.00 90 1020.1
20260902080236 22 354 4.8 4.8 0.00 0.00 0.00 91 1019.7
20260902075736 22 6 0.0 0.0 0.00 0.00 0.00 91 1019.7
20260902075236 22 44 0.0 0.0 0.00 0.00 0.00 91 1019.7
20260902074737 22 173 0.0 0.0 0.00 0.00 0.00 90 1020.1
20260902074237 22 224 0.0 0.0 0.00 0.00 0.00 90 1020.1
20260902073737 22 224 0.0 1.6 0.00 0.00 0.00 89 1019.7
20260902073238 23 252 0.0 1.6 0.00 0.00 0.00 88 1019.7
20260902072737 23 98 0.0 1.6 0.00 0.00 0.00 88 1020.1
20260902072237 23 142 0.0 1.6 0.00 0.00 0.00 87 1019.7
20260902071737 23 168 1.6 1.6 0.00 0.00 0.00 86 1020.1
20260902071237 23 25 0.0 1.6 0.00 0.00 0.00 85 1019.7
20260902070737 23 89 0.0 1.6 0.00 0.00 0.00 84 1020.1
20260902070237 23 342 0.0 1.6 0.00 0.00 0.00 83 1020.1
20260902065736 24 47 0.0 1.6 0.00 0.00 0.00 82 1020.1
20260902065237 23 214 0.0 1.6 0.00 0.00 0.00 83 1019.7
20260902064737 23 147 0.0 1.6 0.00 0.00 0.00 87 1020.1
20260902064236 23 148 0.0 0.0 0.00 0.00 0.00 87 1020.1
20260902063736 23 309 0.0 0.0 0.00 0.00 0.00 87 1020.1
20260902063236 23 242 0.0 0.0 0.00 0.00 0.00 86 1020.1
20260902062736 23 147 0.0 0.0 0.00 0.00 0.00 85 1020.1
20260902062237 23 147 0.0 0.0 0.00 0.00 0.00 86 1020.1
20260902061737 23 129 0.0 0.0 0.00 0.00 0.00 86 1020.1
20260902061237 23 142 0.0 1.6 0.00 0.00 0.00 85 1020.1
20260902060736 23 214 1.6 1.6 0.00 0.00 0.00 85 1020.4
20260902060237 23 315 0.0 1.6 0.00 0.00 0.00 84 1020.1
20260902055737 23 285 0.0 3.2 0.00 0.00 0.00 85 1020.1
20260902055237 23 60 0.0 3.2 0.00 0.00 0.00 86 1020.1
20260902054737 23 53 0.0 1.6 0.00 0.00 0.00 86 1020.1
20260902054236 23 313 0.0 1.6 0.00 0.00 0.00 87 1020.4
20260902053737 23 81 0.0 1.6 0.00 0.00 0.00 86 1020.1
20260902053237 23 224 0.0 1.6 0.00 0.00 0.00 86 1020.1
20260902052737 23 98 0.0 0.0 0.00 0.00 0.00 85 1020.1
20260902052237 23 62 0.0 1.6 0.00 0.00 0.00 85 1020.1
20260902051737 23 89 0.0 1.6 0.00 0.00 0.00 85 1020.1
20260902051236 23 25 0.0 0.0 0.00 0.00 0.00 85 1020.1
20260902050737 23 44 0.0 0.0 0.00 0.00 0.00 84 1020.1
20260902050237 23 44 0.0 1.6 0.00 0.00 0.00 84 1020.4
20260902045736 23 160 0.0 1.6 0.00 0.00 0.00 85 1020.1
20260902045237 23 149 0.0 1.6 0.00 0.00 0.00 84 1020.4
20260902044737 23 212 0.0 1.6 0.00 0.00 0.00 84 1020.1
20260902044236 24 255 0.0 1.6 0.00 0.00 0.00 83 1020.1
20260902043736 24 257 0.0 4.8 0.00 0.00 0.00 83 1020.4
20260902043236 24 242 0.0 4.8 0.00 0.00 0.00 84 1020.1
20260902042737 24 108 1.6 3.2 0.00 0.00 0.00 84 1020.1
20260902042236 24 107 1.6 1.6 0.00 0.00 0.00 83 1020.4
20260902041737 24 50 0.0 1.6 0.00 0.00 0.00 83 1020.4
20260902041236 25 224 0.0 4.8 0.00 0.00 0.00 82 1020.4
20260902040737 25 84 0.0 4.8 0.00 0.00 0.00 81 1020.8
20260902040237 25 161 3.2 3.2 0.00 0.00 0.00 81 1020.8
20260902035736 25 122 0.0 1.6 0.00 0.00 0.00 79 1020.4
20260902035236 25 336 0.0 1.6 0.00 0.00 0.00 79 1020.4
20260902034736 25 44 0.0 3.2 0.00 0.00 0.00 80 1020.4
20260902034237 25 22 0.0 3.2 0.00 0.00 0.00 82 1020.4
20260902033737 25 355 1.6 1.6 0.00 0.00 0.00 81 1020.8
20260902033236 25 37 0.0 1.6 0.00 0.00 0.00 80 1020.4
20260902032736 25 25 0.0 1.6 0.00 0.00 0.00 80 1020.8
20260902032237 25 230 0.0 3.2 0.00 0.00 0.00 78 1020.4
20260902031737 25 224 0.0 3.2 0.00 0.00 0.00 78 1020.8
20260902031237 26 172 3.2 3.2 0.00 0.00 0.00 76 1020.4
20260902030737 26 150 0.0 3.2 0.00 0.00 0.00 76 1020.4
20260902030237 26 343 0.0 3.2 0.00 0.00 0.00 76 1020.4
20260902025736 26 115 0.0 1.6 0.00 0.00 0.00 75 1020.4
20260902025236 26 135 0.0 3.2 0.00 0.00 0.00 75 1020.4
20260902024737 26 158 0.0 3.2 0.00 0.00 0.00 74 1020.4
20260902024237 26 15 0.0 1.6 0.00 0.00 0.00 72 1020.8
20260902023736 27 29 0.0 1.6 0.00 0.00 0.00 69 1020.1
20260902023236 27 217 0.0 1.6 0.00 0.00 0.00 69 1020.4
20260902022736 27 284 0.0 1.6 0.00 0.00 0.00 68 1020.4
20260902022237 27 29 0.0 3.2 0.00 0.00 0.00 67 1020.4
20260902021737 26 25 0.0 3.2 0.00 0.00 0.00 69 1020.1
20260902021237 26 38 1.6 3.2 0.00 0.00 0.00 70 1020.4
20260902020736 27 217 0.0 3.2 0.00 0.00 0.00 70 1020.4
20260902020236 27 135 0.0 3.2 0.00 0.00 0.00 70 1020.1
20260902015737 27 357 0.0 1.6 0.00 0.00 0.00 71 1020.4
20260902015236 27 315 0.0 3.2 0.00 0.00 0.00 71 1020.1
20260902014737 27 44 0.0 3.2 0.00 0.00 0.00 71 1020.1
20260902014237 27 47 0.0 1.6 0.00 0.00 0.00 70 1020.1
20260902013736 27 205 0.0 1.6 0.00 0.00 0.00 70 1020.1
20260902013237 27 139 0.0 1.6 0.00 0.00 0.00 71 1020.1
20260902012736 27 0.0 1.6 0.00 0.00 0.00 70 1020.1
20260902012236 27 135 0.0 0.0 0.00 0.00 0.00 70 1020.1
20260902011737 27 322 0.0 0.0 0.00 0.00 0.00 71 1020.1
20260902011236 27 322 0.0 1.6 0.00 0.00 0.00 72 1019.7
20260902010737 27 75 0.0 1.6 0.00 0.00 0.00 70 1019.7
20260902010237 28 118 0.0 1.6 0.00 0.00 0.00 69 1019.7
20260902005736 28 309 0.0 1.6 0.00 0.00 0.00 68 1019.7
20260902005236 28 130 0.0 1.6 0.00 0.00 0.00 66 1019.7
20260902004736 28 142 0.0 1.6 0.00 0.00 0.00 64 1019.7
20260902004236 28 129 0.0 1.6 0.00 0.00 0.00 63 1019.4
20260902003736 29 255 0.0 1.6 0.00 0.00 0.00 63 1019.7
20260902003236 29 228 0.0 0.0 0.00 0.00 0.00 62 1019.7
20260902002736 30 240 0.0 1.6 0.00 0.00 0.00 62 1019.7
20260902002236 30 243 0.0 3.2 0.00 0.00 0.00 60 1019.7
20260902001736 30 103 0.0 3.2 0.00 0.00 0.00 59 1019.7
20260902001236 30 322 0.0 1.6 0.00 0.00 0.00 56 1019.7
20260902000737 31 135 0.0 1.6 0.00 0.00 0.00 55 1019.4
20260902000236 31 224 0.0 1.6 0.00 0.00 0.00 54 1019.7
20260901235736 31 224 0.0 1.6 0.00 0.00 0.00 54 1019.7
20260901235236 31 55 0.0 1.6 0.00 0.00 0.00 54 1019.7
20260901234736 31 32 0.0 1.6 0.00 0.00 0.00 53 1019.7
20260901234236 32 333 0.0 4.8 0.00 0.00 0.00 53 1019.4
20260901233737 32 315 0.0 4.8 0.00 0.00 0.00 52 1019.7
20260901233236 32 191 3.2 4.8 0.00 0.00 0.00 50 1019.7
20260901232736 32 193 3.2 6.4 0.00 0.00 0.00 49 1019.7
20260901232237 32 135 4.8 8.0 0.00 0.00 0.00 47 1020.1
20260901231737 32 118 3.2 9.7 0.00 0.00 0.00 46 1020.1
20260901231236 32 159 4.8 9.7 0.00 0.00 0.00 47 1019.7
20260901230737 32 115 6.4 9.7 0.00 0.00 0.00 47 1019.7
20260901230236 32 108 4.8 9.7 0.00 0.00 0.00 46 1019.7
20260901225736 32 104 4.8 9.7 0.00 0.00 0.00 47 1020.1
20260901225236 32 129 6.4 9.7 0.00 0.00 0.00 47 1019.7
20260901224737 33 138 4.8 9.7 0.00 0.00 0.00 47 1020.1
20260901224236 33 141 4.8 9.7 0.00 0.00 0.00 47 1020.1
20260901223736 33 102 4.8 9.7 0.00 0.00 0.00 46 1020.1
20260901223237 33 183 3.2 9.7 0.00 0.00 0.00 47 1020.1
20260901222737 33 118 6.4 9.7 0.00 0.00 0.00 47 1020.1
20260901222236 33 112 8.0 9.7 0.00 0.00 0.00 47 1019.7
20260901221737 33 100 4.8 8.0 0.00 0.00 0.00 46 1020.1
20260901221236 33 42 3.2 8.0 0.00 0.00 0.00 47 1019.7
20260901220737 33 102 3.2 9.7 0.00 0.00 0.00 46 1019.7
20260901220236 33 14 3.2 9.7 0.00 0.00 0.00 46 1020.1
20260901215737 33 14 0.0 8.0 0.00 0.00 0.00 43 1019.7
20260901215236 33 131 8.0 8.0 0.00 0.00 0.00 44 1019.7
20260901214737 33 85 0.0 4.8 0.00 0.00 0.00 44 1019.7
20260901214237 33 280 3.2 6.4 0.00 0.00 0.00 44 1020.1
20260901213736 33 248 3.2 8.0 0.00 0.00 0.00 44 1019.7
20260901213236 33 189 6.4 9.7 0.00 0.00 0.00 45 1020.1
20260901212736 33 189 3.2 9.7 0.00 0.00 0.00 45 1020.1
20260901212237 32 239 6.4 8.0 0.00 0.00 0.00 48 1019.7
20260901211714 32 184 3.2 8.0 0.00 0.00 0.00 48 1020.1
20260901211213 32 171 4.8 8.0 0.00 0.00 0.00 48 1020.1
20260901210713 32 184 4.8 6.4 0.00 0.00 0.00 48 1019.7
20260901210215 32 22 0.0 6.4 0.00 0.00 0.00 46 1020.1
20260901205713 32 122 3.2 6.4 0.00 0.00 0.00 45 1020.1
20260901205215 32 31 4.8 6.4 0.00 0.00 0.00 46 1020.1
20260901204713 32 345 4.8 8.0 0.00 0.00 0.00 46 1020.1
20260901204215 32 8 6.4 8.0 0.00 0.00 0.00 48 1020.1
20260901203715 32 4.8 6.4 0.00 0.00 0.00 47 1020.1
20260901203214 32 65 0.0 3.2 0.00 0.00 0.00 49 1020.1
20260901202715 32 217 0.0 3.2 0.00 0.00 0.00 49 1020.1
20260901202215 32 100 1.6 3.2 0.00 0.00 0.00 47 1020.4
20260901201716 32 113 0.0 6.4 0.00 0.00 0.00 49 1020.4
20260901201216 32 156 0.0 8.0 0.00 0.00 0.00 48 1020.4
20260901200716 32 54 4.8 8.0 0.00 0.00 0.00 48 1020.4
20260901200216 32 86 1.6 6.4 0.00 0.00 0.00 48 1020.4
20260901195714 32 44 0.0 9.7 0.00 0.00 0.00 47 1020.8
20260901195213 32 14 3.2 9.7 0.00 0.00 0.00 46 1020.4
20260901194715 32 39 9.7 9.7 0.00 0.00 0.00 46 1020.4
20260901194214 32 33 6.4 6.4 0.00 0.00 0.00 50 1020.8
20260901193715 32 322 0.0 4.8 0.00 0.00 0.00 47 1020.4
20260901193214 32 47 1.6 4.8 0.00 0.00 0.00 48 1020.8
20260901192715 32 329 0.0 4.8 0.00 0.00 0.00 49 1020.8
20260901192214 32 214 0.0 8.0 0.00 0.00 0.00 47 1020.8
20260901191716 32 39 4.8 11.3 0.00 0.00 0.00 46 1020.8
20260901191216 32 1 6.4 11.3 0.00 0.00 0.00 46 1020.8
20260901190715 32 15 3.2 9.7 0.00 0.00 0.00 46 1020.8
20260901190214 32 343 3.2 8.0 0.00 0.00 0.00 47 1021.1
20260901185714 32 316 4.8 9.7 0.00 0.00 0.00 47 1020.8
20260901185214 32 23 4.8 9.7 0.00 0.00 0.00 48 1021.1
20260901184714 32 54 9.7 11.3 0.00 0.00 0.00 47 1021.1
20260901184214 32 22 9.7 12.9 0.00 0.00 0.00 48 1021.5
20260901183714 32 223 9.7 12.9 0.00 0.00 0.00 48 1021.1
20260901183213 32 257 6.4 12.9 0.00 0.00 0.00 47 1021.1
20260901182713 32 315 9.7 9.7 0.00 0.00 0.00 47 1021.5
20260901182214 32 295 6.4 14.5 0.00 0.00 0.00 47 1021.5
20260901181713 32 344 9.7 14.5 0.00 0.00 0.00 46 1021.5
20260901181213 32 10 4.8 9.7 0.00 0.00 0.00 48 1021.5
20260901180713 32 339 4.8 11.3 0.00 0.00 0.00 48 1021.5
20260901180214 32 18 4.8 11.3 0.00 0.00 0.00 48 1021.8
20260901175713 32 353 6.4 11.3 0.00 0.00 0.00 48 1021.8
20260901175213 31 37 4.8 11.3 0.00 0.00 0.00 50 1022.2
20260901174712 31 82 8.0 9.7 0.00 0.00 0.00 52 1021.5
20260901174213 31 244 0.0 3.2 0.00 0.00 0.00 50 1021.8
20260901173713 32 26 3.2 6.4 0.00 0.00 0.00 50 1021.8
20260901173215 32 234 3.2 8.0 0.00 0.00 0.00 49 1022.2
20260901172713 32 296 6.4 8.0 0.00 0.00 0.00 50 1022.2
20260901172214 32 21 1.6 12.9 0.00 0.00 0.00 49 1021.8
20260901171714 32 236 3.2 12.9 0.00 0.00 0.00 50 1022.5
20260901171214 32 319 3.2 9.7 0.00 0.00 0.00 50 1022.5
20260901170714 32 257 3.2 11.3 0.00 0.00 0.00 49 1022.5
20260901170213 32 338 6.4 11.3 0.00 0.00 0.00 50 1022.5
20260901165713 31 336 3.2 12.9 0.00 0.00 0.00 52 1022.5
20260901165214 31 266 9.7 14.5 0.00 0.00 0.00 52 1022.5
20260901164714 31 312 4.8 14.5 0.00 0.00 0.00 53 1022.5
20260901164214 31 325 11.3 14.5 0.00 0.00 0.00 56 1022.2
20260901163713 31 324 6.4 19.3 0.00 0.00 0.00 56 1022.2
20260901163214 31 315 8.0 19.3 0.00 0.00 0.00 54 1022.5
20260901162713 31 284 11.3 14.5 0.00 0.00 0.00 54 1022.5
20260901162213 32 277 8.0 14.5 0.00 0.00 0.00 56 1022.5
20260901161718 31 324 4.8 11.3 0.00 0.00 0.00 58 1022.9
20260901161214 31 287 8.0 11.3 0.00 0.00 0.00 57 1022.9
20260901160719 31 327 4.8 11.3 0.00 0.00 0.00 57 1022.9
20260901160214 31 314 8.0 14.5 0.00 0.00 0.00 55 1022.9
20260901155713 31 258 0.0 14.5 0.00 0.00 0.00 55 1022.9
20260901155214 31 237 8.0 14.5 0.00 0.00 0.00 54 1022.9
20260901154714 31 155 0.0 12.9 0.00 0.00 0.00 55 1022.5
20260901154214 31 221 6.4 12.9 0.00 0.00 0.00 55 1022.9
20260901153713 31 229 6.4 11.3 0.00 0.00 0.00 55 1022.9
20260901153214 31 253 6.4 11.3 0.00 0.00 0.00 55 1022.9
20260901152713 31 269 3.2 8.0 0.00 0.00 0.00 57 1022.9
20260901152214 31 273 3.2 8.0 0.00 0.00 0.00 57 1022.9
20260901151713 30 217 6.4 9.7 0.00 0.00 0.00 58 1022.9
20260901151213 30 225 4.8 11.3 0.00 0.00 0.00 58 1022.9
20260901150714 30 250 3.2 11.3 0.00 0.00 0.00 57 1022.5
20260901150213 30 273 4.8 11.3 0.00 0.00 0.00 57 1023.2
20260901145714 30 278 4.8 11.3 0.00 0.00 0.00 57 1022.9
20260901145213 31 275 3.2 6.4 0.00 0.00 0.00 59 1022.5
20260901144713 30 129 0.0 6.4 0.00 0.00 0.00 62 1022.9
20260901144214 30 241 3.2 6.4 0.00 0.00 0.00 61 1022.5
20260901143714 30 281 3.2 6.4 0.00 0.00 0.00 63 1022.5
20260901143213 30 229 3.2 6.4 0.00 0.00 0.00 63 1022.5
20260901142713 30 282 3.2 4.8 0.00 0.00 0.00 64 1022.9
20260901142214 30 274 3.2 4.8 0.00 0.00 0.00 65 1022.5
20260901141713 30 271 3.2 4.8 0.00 0.00 0.00 65 1022.5
20260901141215 29 280 3.2 4.8 0.00 0.00 0.00 65 1022.5
20260901140714 29 166 0.0 6.4 0.00 0.00 0.00 65 1022.9
20260901140213 29 100 0.0 6.4 0.00 0.00 0.00 67 1022.9
20260901135714 29 15 0.0 4.8 0.00 0.00 0.00 69 1022.5
20260901135214 28 151 0.0 4.8 0.00 0.00 0.00 69 1022.5
20260901134714 28 135 0.0 3.2 0.00 0.00 0.00 70 1022.9
20260901134213 28 77 0.0 3.2 0.00 0.00 0.00 71 1022.5
20260901133713 28 164 0.0 3.2 0.00 0.00 0.00 73 1022.9
20260901133214 27 177 0.0 3.2 0.00 0.00 0.00 72 1022.5
20260901132713 27 213 1.6 6.4 0.00 0.00 0.00 74 1022.5
20260901132213 27 256 0.0 6.4 0.00 0.00 0.00 76 1022.9
20260901131714 27 229 3.2 6.4 0.00 0.00 0.00 78 1022.9